Powrót do katalogu

FENGYUN 1C DEB

AktywnySSO
NORAD 30068·DEBRIS·🇨🇳 China

Wystrzelony May 10, 1999 z Taiyuan Satellite Launch Center

Loading…

Następne Przeloty (najbliższe 24 godziny)

TLE

ŚwieżeSource: Space-Track

Epoka: Sep 14, 2026, 21:39 UTC

1 30068U 99025PV  26257.90241014  .00000167  00000-0  97513-4 0  9998
2 30068  98.7613 244.2806 0188660 283.6465  74.3763 14.12218211 12390

Śledź FENGYUN 1C DEB w czasie rzeczywistym z AllMySat

Download on the App Store